Location: Vancouver
(49.2500°N, 123.1330°W)
Time: 21:37:14
(UTC-07:00)

Cosmos 2333 Rocket - Visible Passes

Search period start: 26 August 2016 00:00
Search period end: 05 September 2016 00:00
Orbit: 837 x 865 km, 70.8° (Epoch: 26 August)

Date Brightness Start Highest point End Pass type
(mag) Time Alt. Az. Time Alt. Az. Time Alt. Az.
26 Aug 3.2 01:15:47 37° ENE 01:15:47 37° ENE 01:19:53 10° NE visible
26 Aug 3.1 02:57:46 36° WNW 02:58:48 39° NW 03:04:14 10° NNE visible
26 Aug 4.5 04:42:18 10° NW 04:44:49 13° NNW 04:47:21 10° N visible
27 Aug 3.3 01:03:46 36° ENE 01:03:46 36° ENE 01:07:38 10° NE visible
27 Aug 3.1 02:45:45 38° WNW 02:46:33 39° NW 02:51:59 10° NNE visible
27 Aug 4.5 04:30:03 10° NW 04:32:34 13° NNW 04:35:06 10° N visible
28 Aug 3.4 00:51:43 34° ENE 00:51:43 34° ENE 00:55:23 10° NE visible
28 Aug 3.1 02:33:43 38° WNW 02:34:17 39° NW 02:39:44 10° NNE visible
28 Aug 4.6 04:17:48 10° NW 04:20:19 13° NNW 04:22:51 10° N visible
29 Aug 3.4 00:39:40 32° ENE 00:39:40 32° ENE 00:43:08 10° NE visible
29 Aug 3.1 02:21:39 39° WNW 02:22:03 39° NW 02:27:29 10° NNE visible
29 Aug 4.6 04:05:33 10° NW 04:08:04 13° NNW 04:10:36 10° N visible
30 Aug 3.5 00:27:35 31° ENE 00:27:35 31° ENE 00:30:53 10° NE visible
30 Aug 3.1 02:09:34 39° NW 02:09:48 39° NW 02:15:14 10° NNE visible
30 Aug 4.6 03:53:18 10° NW 03:55:49 13° NNW 03:58:21 10° N visible
31 Aug 3.5 00:15:28 30° ENE 00:15:28 30° ENE 00:18:38 10° NE visible
31 Aug 3.2 01:57:28 39° NW 01:57:33 39° NW 02:02:59 10° NNE visible
31 Aug 4.6 03:41:03 10° NW 03:43:34 13° NNW 03:46:06 10° N visible
01 Sep 3.6 00:03:20 29° ENE 00:03:20 29° ENE 00:06:23 10° NE visible
01 Sep 3.2 01:45:20 39° NW 01:45:20 39° NW 01:50:44 10° NNE visible
01 Sep 4.7 03:28:48 10° NW 03:31:19 13° NNW 03:33:51 10° N visible
01 Sep 3.6 23:51:11 28° ENE 23:51:11 28° ENE 23:54:08 10° NE visible
02 Sep 3.2 01:33:10 39° NW 01:33:10 39° NW 01:38:28 10° NNE visible
02 Sep 4.7 03:16:33 10° NW 03:19:04 13° NNW 03:21:36 10° N visible
02 Sep 3.6 23:38:59 28° ENE 23:38:59 28° ENE 23:41:53 10° NE visible
03 Sep 3.3 01:20:58 39° NW 01:20:58 39° NW 01:26:14 10° NNE visible
03 Sep 4.7 03:04:18 10° NW 03:06:49 13° NNW 03:09:21 10° N visible
03 Sep 3.6 23:26:46 27° ENE 23:26:46 27° ENE 23:29:38 10° NE visible
04 Sep 3.3 01:08:45 39° NW 01:08:45 39° NW 01:13:58 10° NNE visible
04 Sep 4.7 02:52:03 10° NW 02:54:34 13° NNW 02:57:05 10° N visible
04 Sep 3.6 23:14:30 28° ENE 23:14:30 28° ENE 23:17:23 10° NE visible
